Time,TemperatureF,DewpointF,PressureIn,WindDirection,WindDirectionDegrees,WindSpeedMPH,WindSpeedGustMPH,Humidity,HourlyPrecipIn,Conditions,Clouds,dailyrainin,SoftwareType,DateUTC
2013-03-30 00:00:00,31.0,23.0,30.14,NW,306,0.0,-999.0,72,-99.99,,,0.00,weatherlink.com 1.10,2013-03-30 04:00:00,
2013-03-30 00:15:00,30.6,23.0,30.14,NW,306,0.0,-999.0,74,-99.99,,,0.00,weatherlink.com 1.10,2013-03-30 04:15:00,
2013-03-30 00:30:00,30.4,23.0,30.14,NW,306,0.0,-999.0,74,-99.99,,,0.00,weatherlink.com 1.10,2013-03-30 04:30:00,
2013-03-30 00:45:00,30.1,23.0,30.14,NW,306,0.0,-999.0,74,-99.99,,,0.00,weatherlink.com 1.10,2013-03-30 04:45:00,
2013-03-30 01:00:00,29.7,22.0,30.14,NW,306,0.0,-999.0,74,-99.99,,,0.00,weatherlink.com 1.10,2013-03-30 05:00:00,
2013-03-30 01:15:00,29.1,22.0,30.14,NW,306,0.0,-999.0,74,-99.99,,,0.00,weatherlink.com 1.10,2013-03-30 05:15:00,
2013-03-30 01:30:00,28.5,22.0,30.14,NW,308,0.0,-999.0,75,-99.99,,,0.00,weatherlink.com 1.10,2013-03-30 05:30:00,
2013-03-30 01:45:00,28.2,22.0,30.14,NW,306,0.0,-999.0,76,-99.99,,,0.00,weatherlink.com 1.10,2013-03-30 05:45:00,
2013-03-30 02:00:00,28.1,21.0,30.14,NW,306,0.0,-999.0,76,-99.99,,,0.00,weatherlink.com 1.10,2013-03-30 06:00:00,
2013-03-30 02:15:00,27.8,22.0,30.14,NW,306,0.0,-999.0,78,-99.99,,,0.00,weatherlink.com 1.10,2013-03-30 06:15:00,
2013-03-30 02:30:00,27.6,22.0,30.14,NW,306,0.0,-999.0,79,-99.99,,,0.00,weatherlink.com 1.10,2013-03-30 06:30:00,
2013-03-30 02:45:00,27.3,22.0,30.14,NW,308,0.0,-999.0,80,-99.99,,,0.00,weatherlink.com 1.10,2013-03-30 06:45:00,
2013-03-30 03:00:00,26.9,22.0,30.13,NW,308,0.0,-999.0,80,-99.99,,,0.00,weatherlink.com 1.10,2013-03-30 07:00:00,
2013-03-30 03:15:00,26.9,22.0,30.13,NW,308,0.0,-999.0,81,-99.99,,,0.00,weatherlink.com 1.10,2013-03-30 07:15:00,
2013-03-30 03:30:00,26.7,22.0,30.13,NW,306,0.0,-999.0,81,-99.99,,,0.00,weatherlink.com 1.10,2013-03-30 07:30:00,
2013-03-30 03:45:00,26.4,22.0,30.13,NW,308,0.0,-999.0,82,-99.99,,,0.00,weatherlink.com 1.10,2013-03-30 07:45:00,
2013-03-30 04:00:00,26.1,21.0,30.14,NW,308,0.0,-999.0,82,-99.99,,,0.00,weatherlink.com 1.10,2013-03-30 08:00:00,
2013-03-30 04:15:00,25.8,21.0,30.14,NW,306,0.0,-999.0,83,-99.99,,,0.00,weatherlink.com 1.10,2013-03-30 08:15:00,
2013-03-30 04:30:00,25.6,21.0,30.13,NW,308,0.0,-999.0,82,-99.99,,,0.00,weatherlink.com 1.10,2013-03-30 08:30:00,
2013-03-30 04:45:00,25.3,21.0,30.13,NW,306,0.0,-999.0,83,-99.99,,,0.00,weatherlink.com 1.10,2013-03-30 08:45:00,
2013-03-30 05:00:00,25.1,21.0,30.14,NW,306,0.0,-999.0,83,-99.99,,,0.00,weatherlink.com 1.10,2013-03-30 09:00:00,
2013-03-30 05:15:00,25.1,21.0,30.14,NW,306,0.0,-999.0,84,-99.99,,,0.00,weatherlink.com 1.10,2013-03-30 09:15:00,
2013-03-30 05:30:00,25.4,22.0,30.14,NW,306,0.0,-999.0,85,-99.99,,,0.00,weatherlink.com 1.10,2013-03-30 09:30:00,
2013-03-30 05:45:00,25.4,21.0,30.14,NW,308,0.0,-999.0,84,-99.99,,,0.00,weatherlink.com 1.10,2013-03-30 09:45:00,
2013-03-30 06:00:00,25.1,21.0,30.15,NW,306,0.0,-999.0,84,-99.99,,,0.00,weatherlink.com 1.10,2013-03-30 10:00:00,
2013-03-30 06:15:00,25.0,21.0,30.15,NW,306,0.0,-999.0,84,-99.99,,,0.00,weatherlink.com 1.10,2013-03-30 10:15:00,
2013-03-30 06:30:00,24.7,21.0,30.15,NW,306,0.0,-999.0,84,-99.99,,,0.00,weatherlink.com 1.10,2013-03-30 10:30:00,
2013-03-30 06:45:00,24.4,20.0,30.15,NW,306,0.0,-999.0,84,-99.99,,,0.00,weatherlink.com 1.10,2013-03-30 10:45:00,
2013-03-30 07:00:00,23.9,20.0,30.16,NW,306,0.0,-999.0,84,-99.99,,,0.00,weatherlink.com 1.10,2013-03-30 11:00:00,
2013-03-30 07:15:00,23.6,20.0,30.16,NW,308,0.0,-999.0,85,-99.99,,,0.00,weatherlink.com 1.10,2013-03-30 11:15:00,
2013-03-30 07:30:00,23.5,20.0,30.16,NW,306,0.0,-999.0,85,-99.99,,,0.00,weatherlink.com 1.10,2013-03-30 11:30:00,
2013-03-30 07:45:00,23.5,20.0,30.17,NW,308,0.0,-999.0,85,-99.99,,,0.00,weatherlink.com 1.10,2013-03-30 11:45:00,
2013-03-30 08:00:00,23.8,20.0,30.17,NW,306,0.0,-999.0,86,-99.99,,,0.00,weatherlink.com 1.10,2013-03-30 12:00:00,
2013-03-30 08:15:00,24.7,21.0,30.17,NW,306,0.0,-999.0,87,-99.99,,,0.00,weatherlink.com 1.10,2013-03-30 12:15:00,
2013-03-30 08:30:00,25.6,22.0,30.17,NW,306,0.0,-999.0,87,-99.99,,,0.00,weatherlink.com 1.10,2013-03-30 12:30:00,
2013-03-30 08:45:00,26.7,23.0,30.17,NW,306,0.0,-999.0,87,-99.99,,,0.00,weatherlink.com 1.10,2013-03-30 12:45:00,
2013-03-30 09:00:00,28.5,25.0,30.18,NW,306,0.0,-999.0,85,-99.99,,,0.00,weatherlink.com 1.10,2013-03-30 13:00:00,
2013-03-30 09:15:00,30.3,25.0,30.18,NW,306,0.0,-999.0,81,-99.99,,,0.00,weatherlink.com 1.10,2013-03-30 13:15:00,
2013-03-30 09:30:00,32.4,26.0,30.18,NW,306,0.0,-999.0,78,-99.99,,,0.00,weatherlink.com 1.10,2013-03-30 13:30:00,
2013-03-30 09:45:00,34.6,27.0,30.17,NW,306,0.0,-999.0,73,-99.99,,,0.00,weatherlink.com 1.10,2013-03-30 13:45:00,
2013-03-30 10:00:00,37.2,27.0,30.17,NW,308,0.0,-999.0,66,-99.99,,,0.00,weatherlink.com 1.10,2013-03-30 14:00:00,
2013-03-30 10:15:00,39.6,26.0,30.16,WSW,253,0.0,-999.0,59,-99.99,,,0.00,weatherlink.com 1.10,2013-03-30 14:15:00,
2013-03-30 10:30:00,41.6,23.0,30.15,SSW,209,3.0,-999.0,47,-99.99,,,0.00,weatherlink.com 1.10,2013-03-30 14:30:00,
2013-03-30 10:45:00,42.9,23.0,30.15,South,172,2.0,-999.0,45,-99.99,,,0.00,weatherlink.com 1.10,2013-03-30 14:45:00,
2013-03-30 11:00:00,43.9,21.0,30.14,SSW,205,7.0,-999.0,41,-99.99,,,0.00,weatherlink.com 1.10,2013-03-30 15:00:00,
2013-03-30 11:15:00,44.6,23.0,30.14,South,186,0.0,-999.0,43,-99.99,,,0.00,weatherlink.com 1.10,2013-03-30 15:15:00,
2013-03-30 11:30:00,45.7,22.0,30.14,SSW,198,0.0,-999.0,39,-99.99,,,0.00,weatherlink.com 1.10,2013-03-30 15:30:00,
2013-03-30 11:45:00,46.0,22.0,30.13,SW,222,2.0,-999.0,39,-99.99,,,0.00,weatherlink.com 1.10,2013-03-30 15:45:00,
2013-03-30 12:00:00,45.7,19.0,30.13,SSW,203,2.0,-999.0,35,-99.99,,,0.00,weatherlink.com 1.10,2013-03-30 16:00:00,
2013-03-30 12:15:00,46.8,21.0,30.12,SSW,203,1.0,-999.0,36,-99.99,,,0.00,weatherlink.com 1.10,2013-03-30 16:15:00,
2013-03-30 12:30:00,47.9,23.0,30.11,West,263,0.0,-999.0,37,-99.99,,,0.00,weatherlink.com 1.10,2013-03-30 16:30:00,
2013-03-30 12:45:00,48.2,22.0,30.11,SW,215,6.0,-999.0,35,-99.99,,,0.00,weatherlink.com 1.10,2013-03-30 16:45:00,
2013-03-30 13:00:00,48.0,21.0,30.11,NNW,328,2.0,-999.0,35,-99.99,,,0.00,weatherlink.com 1.10,2013-03-30 17:00:00,
2013-03-30 13:15:00,48.8,21.0,30.10,SSE,150,0.0,-999.0,34,-99.99,,,0.00,weatherlink.com 1.10,2013-03-30 17:15:00,
2013-03-30 13:30:00,49.2,22.0,30.09,South,188,1.0,-999.0,35,-99.99,,,0.00,weatherlink.com 1.10,2013-03-30 17:30:00,
2013-03-30 13:45:00,50.2,24.0,30.09,WNW,287,1.0,-999.0,36,-99.99,,,0.00,weatherlink.com 1.10,2013-03-30 17:45:00,
2013-03-30 14:00:00,49.1,23.0,30.09,WSW,244,0.0,-999.0,36,-99.99,,,0.00,weatherlink.com 1.10,2013-03-30 18:00:00,
2013-03-30 14:15:00,50.4,24.0,30.08,WSW,246,0.0,-999.0,36,-99.99,,,0.00,weatherlink.com 1.10,2013-03-30 18:15:00,
2013-03-30 14:30:00,49.8,22.0,30.07,WSW,241,8.0,-999.0,33,-99.99,,,0.00,weatherlink.com 1.10,2013-03-30 18:30:00,
2013-03-30 14:45:00,51.1,24.0,30.06,ESE,116,0.0,-999.0,35,-99.99,,,0.00,weatherlink.com 1.10,2013-03-30 18:45:00,
2013-03-30 15:00:00,51.1,21.0,30.06,NW,318,6.0,-999.0,31,-99.99,,,0.00,weatherlink.com 1.10,2013-03-30 19:00:00,
2013-03-30 15:15:00,52.0,23.0,30.05,WNW,285,0.0,-999.0,32,-99.99,,,0.00,weatherlink.com 1.10,2013-03-30 19:15:00,
2013-03-30 15:30:00,52.5,22.0,30.05,SSW,212,5.0,-999.0,31,-99.99,,,0.00,weatherlink.com 1.10,2013-03-30 19:30:00,
2013-03-30 15:45:00,51.9,23.0,30.05,NW,315,3.0,-999.0,33,-99.99,,,0.00,weatherlink.com 1.10,2013-03-30 19:45:00,
2013-03-30 16:00:00,52.0,23.0,30.04,WSW,239,0.0,-999.0,32,-99.99,,,0.00,weatherlink.com 1.10,2013-03-30 20:00:00,
2013-03-30 16:15:00,52.3,22.0,30.04,SSW,208,0.0,-999.0,31,-99.99,,,0.00,weatherlink.com 1.10,2013-03-30 20:15:00,
2013-03-30 16:30:00,52.8,21.0,30.03,West,263,2.0,-999.0,29,-99.99,,,0.00,weatherlink.com 1.10,2013-03-30 20:30:00,
2013-03-30 16:45:00,53.5,25.0,30.02,WSW,239,0.0,-999.0,33,-99.99,,,0.00,weatherlink.com 1.10,2013-03-30 20:45:00,
2013-03-30 17:00:00,53.2,21.0,30.02,SSW,196,5.0,-999.0,28,-99.99,,,0.00,weatherlink.com 1.10,2013-03-30 21:00:00,
2013-03-30 17:15:00,53.3,20.0,30.01,SE,141,0.0,-999.0,27,-99.99,,,0.00,weatherlink.com 1.10,2013-03-30 21:15:00,
2013-03-30 17:30:00,52.5,21.0,30.01,WNW,299,0.0,-999.0,29,-99.99,,,0.00,weatherlink.com 1.10,2013-03-30 21:30:00,
2013-03-30 17:45:00,52.5,21.0,30.00,SSE,168,3.0,-999.0,29,-99.99,,,0.00,weatherlink.com 1.10,2013-03-30 21:45:00,
2013-03-30 18:00:00,51.9,20.0,30.00,SSW,208,3.0,-999.0,29,-99.99,,,0.00,weatherlink.com 1.10,2013-03-30 22:00:00,
2013-03-30 18:15:00,51.1,20.0,30.00,SW,236,2.0,-999.0,29,-99.99,,,0.00,weatherlink.com 1.10,2013-03-30 22:15:00,
2013-03-30 18:30:00,50.7,19.0,30.00,SW,222,1.0,-999.0,29,-99.99,,,0.00,weatherlink.com 1.10,2013-03-30 22:30:00,
2013-03-30 18:45:00,49.9,20.0,30.00,South,189,5.0,-999.0,31,-99.99,,,0.00,weatherlink.com 1.10,2013-03-30 22:45:00,
2013-03-30 19:00:00,49.8,19.0,30.00,SW,216,0.0,-999.0,30,-99.99,,,0.00,weatherlink.com 1.10,2013-03-30 23:00:00,
2013-03-30 19:15:00,49.4,18.0,30.00,SW,234,0.0,-999.0,29,-99.99,,,0.00,weatherlink.com 1.10,2013-03-30 23:15:00,
2013-03-30 19:30:00,48.5,21.0,30.00,SSW,203,2.0,-999.0,34,-99.99,,,0.00,weatherlink.com 1.10,2013-03-30 23:30:00,
2013-03-30 19:45:00,47.4,21.0,30.00,South,186,0.0,-999.0,35,-99.99,,,0.00,weatherlink.com 1.10,2013-03-30 23:45:00,
2013-03-30 20:00:00,46.2,20.0,29.99,South,186,0.0,-999.0,35,-99.99,,,0.00,weatherlink.com 1.10,2013-03-31 00:00:00,
2013-03-30 20:15:00,45.2,21.0,29.99,South,186,0.0,-999.0,38,-99.99,,,0.00,weatherlink.com 1.10,2013-03-31 00:15:00,
2013-03-30 20:30:00,44.2,20.0,29.99,South,186,1.0,-999.0,39,-99.99,,,0.00,weatherlink.com 1.10,2013-03-31 00:30:00,
2013-03-30 20:45:00,43.2,22.0,29.99,South,186,0.0,-999.0,43,-99.99,,,0.00,weatherlink.com 1.10,2013-03-31 00:45:00,
2013-03-30 21:00:00,42.8,22.0,29.98,South,186,0.0,-999.0,44,-99.99,,,0.00,weatherlink.com 1.10,2013-03-31 01:00:00,
2013-03-30 21:15:00,42.5,22.0,29.98,South,186,0.0,-999.0,45,-99.99,,,0.00,weatherlink.com 1.10,2013-03-31 01:15:00,
2013-03-30 21:30:00,42.2,23.0,29.98,South,182,0.0,-999.0,46,-99.99,,,0.00,weatherlink.com 1.10,2013-03-31 01:30:00,
2013-03-30 21:45:00,41.9,23.0,29.97,SSE,164,0.0,-999.0,47,-99.99,,,0.00,weatherlink.com 1.10,2013-03-31 01:45:00,
2013-03-30 22:00:00,41.1,24.0,29.96,SSE,164,0.0,-999.0,52,-99.99,,,0.00,weatherlink.com 1.10,2013-03-31 02:00:00,
2013-03-30 22:15:00,40.2,23.0,29.97,SSE,164,0.0,-999.0,51,-99.99,,,0.00,weatherlink.com 1.10,2013-03-31 02:15:00,
2013-03-30 22:30:00,39.6,24.0,29.97,SSE,164,0.0,-999.0,55,-99.99,,,0.00,weatherlink.com 1.10,2013-03-31 02:30:00,
2013-03-30 22:45:00,39.2,23.0,29.97,SSE,164,0.0,-999.0,53,-99.99,,,0.00,weatherlink.com 1.10,2013-03-31 02:45:00,
2013-03-30 23:00:00,39.2,25.0,29.96,SSE,164,0.0,-999.0,57,-99.99,,,0.00,weatherlink.com 1.10,2013-03-31 03:00:00,
2013-03-30 23:15:00,38.6,25.0,29.95,SSE,164,0.0,-999.0,59,-99.99,,,0.00,weatherlink.com 1.10,2013-03-31 03:15:00,
2013-03-30 23:30:00,38.2,25.0,29.95,SSE,160,0.0,-999.0,60,-99.99,,,0.00,weatherlink.com 1.10,2013-03-31 03:30:00,
2013-03-30 23:45:00,38.3,22.0,29.94,SSE,164,1.0,-999.0,53,-99.99,,,0.00,weatherlink.com 1.10,2013-03-31 03:45:00,